STARLINK-11666 [DTC] (63667 NORAD) Tracking and Keplerian Element Data

This shows tracking and keplerian element data for the satellite.

Feedback or suggestion? Click here.




ElementValue
Catalog63667
NameSTARLINK-11666 [DTC]
Epoch Orbit3763
Epoch Day354.12299621
Epoch Year2025
RAAN38.4156
Inclination42.9982
Eccentricity0.0001174
Argument of Perigee216.1385
Mean Anonmoly143.9404
Mean Motion15.70920756
Decay Rate0.00179011
L11 63667U 25085D 25354.12299621 .00179011 00000+0 13641-2 0 9994
L22 63667 42.9982 38.4156 0001174 216.1385 143.9404 15.70920756 37636



Live tracking and technical data element details for STARLINK-11666 [DTC] (NORAD 63667). STARLINK-11666 [DTC] can be tracked NOW for your location showing map with azimuth and elevation plus other details from your city location.







IsCatalogInMostPopularTable: catalog: 63667, numindb: 5
Update: records affected: 1



GetName: 63667 STARLINK-11666 [DTC]

Hit Count: updated at: Sat, 11 Apr 2026 21:26:52 GMT